Terminal Aerodrome Forecast
Issued by NWS Charleston, WV

Current Version | Previous Version | Graphics & Text | Print | Product List | Glossary On
Versions: 1 2 3 4 5 6 7 8 9 10 11 12 13 14 15 16 17 18 19 20 21 22 23 24 25 26 27
000
FTUS41 KRLX 170500
TAFBKW
TAF
KBKW 170521Z 1706/1806 00000KT 5SM BR BKN006 OVC035
      TEMPO 1710/1713 1/2SM FG OVC002
     FM171500 VRB03KT P6SM SCT020=

USA.gov is the U.S. government's official web portal to all federal, state and local government web resources and services.